Location: Eymir
(36.7333°N, 29.7833°E)
Time: 17:16:47
(UTC+00:00)

Cosmos 407 Rocket - Pass Details

Date: 14 January 2026
Orbit: 738 x 782 km, 74.0° (Epoch: 17 February)

Event Time Altitude Azimuth Distance (km) Brightness Sun altitude
Rises 04:26:02 0° 194° (SSW) 3,157 6.8 -9.5°
Reaches altitude 10° 04:28:21 10° 193° (SSW) 2,241 6.0 -9.0°
Maximum altitude 04:33:26 83° 107° (ESE) 755 3.6 -8.1°
Drops below altitude 10° 04:38:35 10° 20° (NNE) 2,277 6.0 -7.1°
Sets 04:40:58 0° 19° (NNE) 3,212 6.7 -6.7°
